RH
40 39 35 28 24 23 22 21 23 26 26 23 22 23 22 20 20 18 15 15 14 16 16 15 16 14 13 12 12 13 17 23 30 33 33 33 33 34 34 35 35 35 34 33 33 33 33 32 31 33 35 40 45 48 52 54 57 63 67 70 76 78 78 75 68 65 68 74 74 72 74 73 69 65 60 56 54 53 54 54 53 50 46 47 57 62
43 42 35 28 26 24 23 22 22 26 27 24 23 22 22 21 20 19 17 16 16 16 17 17 17 15 14 12 12 15 23 31 35 34 33 34 33 33 34 35 35 35 35 34 34 33 32 33 34 36 38 41 44 47 51 53 54 60 66 75 84 86 84 79 72 71 74 78 79 77 76 77 76 71 63 57 54 54 53 51 49 46 45 52 61 62
45 40 35 32 30 27 24 24 24 26 28 27 25 23 22 22 21 19 17 17 17 16 18 19 17 16 15 13 14 18 22 29 34 32 33 34 33 34 35 35 36 35 34 34 33 33 33 34 36 38 39 39 41 45 50 52 54 57 62 72 81 84 86 81 77 77 75 76 80 80 78 78 77 72 64 58 55 53 50 47 46 46 49 57 62 62
46 40 37 35 32 29 28 26 25 27 28 29 28 25 24 22 21 20 18 17 17 17 19 19 18 18 17 15 15 20 21 25 31 33 34 35 34 33 32 33 36 35 34 34 33 33 34 35 36 37 37 38 40 45 50 52 57 62 66 72 76 80 85 82 77 78 75 74 77 80 80 78 77 72 64 58 55 52 49 47 48 51 56 62 65 64
46 41 38 36 33 32 31 28 26 26 28 29 28 26 24 21 21 21 19 19 18 18 18 18 18 18 18 16 15 23 28 27 31 35 35 36 35 33 32 34 36 35 34 34 34 34 34 35 36 36 37 38 41 47 50 53 59 64 65 67 69 74 81 81 77 77 76 76 77 79 80 79 77 73 65 60 56 52 49 50 54 59 64 67 69 68
47 42 39 37 34 32 32 30 26 25 27 29 28 26 23 21 22 20 19 20 20 18 18 18 18 20 21 17 14 24 33 30 32 35 35 35 35 34 35 36 36 36 34 34 35 35 35 36 36 37 37 38 43 49 51 53 59 64 63 63 66 72 78 79 76 76 78 79 78 77 79 78 76 73 68 63 57 53 52 56 61 65 68 71 72 71
48 44 40 38 35 33 34 33 28 25 27 29 27 23 23 22 21 21 19 20 22 21 19 18 19 24 24 17 18 28 33 30 32 35 34 35 35 35 36 37 36 35 34 34 35 35 36 36 36 36 36 40 47 51 52 54 59 63 62 62 63 67 70 70 72 77 81 81 79 77 78 78 76 72 68 64 58 57 58 62 67 69 71 72 73 74
48 46 43 40 37 35 36 35 30 26 27 29 25 22 23 23 21 21 19 20 23 22 21 20 18 21 20 17 26 34 32 30 33 35 34 34 34 35 36 36 35 34 34 34 34 36 36 35 35 35 37 44 50 52 53 57 61 63 62 61 62 64 66 67 72 81 84 82 80 78 77 79 77 70 67 66 64 64 65 68 71 72 73 73 72 73
48 49 45 42 41 38 36 34 30 27 28 29 24 21 23 23 22 22 20 21 24 22 22 22 19 20 20 22 34 36 31 31 33 33 35 34 33 34 35 35 35 35 34 34 35 36 35 35 35 36 42 49 51 53 56 59 61 62 62 63 65 67 69 71 76 83 85 82 81 80 77 78 77 70 69 73 73 71 71 72 74 74 74 73 72 72
49 49 45 42 42 39 36 33 31 29 28 27 25 23 23 24 23 22 22 22 23 23 23 22 20 21 21 25 35 36 33 34 33 32 32 32 32 34 35 35 35 36 35 34 35 36 36 35 35 40 48 51 52 54 57 57 59 62 65 66 69 71 74 76 78 84 86 83 81 79 76 77 78 72 70 76 76 75 76 77 77 76 74 72 72 73
49 47 46 44 40 38 37 35 32 30 29 27 27 25 23 25 25 24 25 23 24 29 27 22 21 21 21 25 31 33 33 33 31 30 31 31 33 34 35 35 35 36 36 35 36 36 37 36 37 46 53 51 52 56 56 55 57 62 65 67 69 72 76 79 81 85 87 84 81 78 75 77 80 75 70 75 78 79 80 80 79 78 75 73 73 73
52 50 48 44 40 40 39 38 35 32 30 29 27 26 25 27 25 24 26 26 28 33 28 23 21 21 23 24 26 29 32 32 28 25 27 31 34 34 35 35 35 36 36 35 36 36 37 38 41 50 52 49 52 56 55 54 55 61 65 66 67 71 78 82 84 86 87 85 81 78 75 78 82 77 71 74 79 82 84 83 80 78 76 75 74 73
55 51 47 45 43 41 40 42 41 36 32 30 28 27 28 29 28 27 29 31 34 32 26 22 21 21 22 21 21 23 26 30 29 24 23 28 33 34 35 36 36 36 36 35 36 36 37 39 42 47 47 47 51 54 55 53 55 61 65 65 66 70 79 84 86 87 86 84 80 77 78 81 83 79 73 75 80 83 84 82 78 76 75 75 74 73
59 55 49 46 44 41 40 42 42 38 34 31 29 27 29 31 31 32 32 34 35 31 25 23 22 22 22 19 17 16 16 21 25 25 23 24 29 32 35 36 37 37 36 35 36 37 38 39 42 45 45 46 50 53 54 53 56 62 65 66 67 70 76 82 85 86 84 81 79 79 84 86 83 78 75 76 80 82 82 80 77 75 74 73 73 74
62 60 52 45 43 40 39 39 38 37 35 31 29 28 28 28 30 33 34 34 34 31 26 23 23 25 22 18 19 18 18 20 21 25 26 24 26 32 36 37 37 37 36 36 36 38 39 40 43 45 44 47 52 54 55 54 57 61 65 68 70 72 76 80 84 85 83 83 82 82 86 88 82 78 79 80 80 80 80 79 76 75 74 74 74 76
58 57 48 42 41 38 38 38 36 37 38 34 30 28 27 26 29 32 33 35 34 28 25 25 25 28 23 19 24 28 29 30 28 29 29 29 30 34 37 38 37 37 36 37 38 39 40 42 44 45 45 50 54 55 56 57 58 61 66 72 75 75 77 78 80 81 83 85 84 83 83 84 81 80 82 82 80 81 81 79 77 76 76 76 76 75
58 55 48 43 43 39 37 36 34 37 40 37 31 28 26 24 29 31 30 36 35 27 27 26 23 25 22 19 27 34 35 36 35 35 34 35 37 37 38 38 37 37 38 39 40 41 42 43 44 45 47 51 55 56 56 58 59 63 68 76 79 78 78 78 77 77 79 82 83 81 81 82 82 82 82 78 78 81 82 80 78 77 77 77 75 71
57 56 51 43 42 41 37 35 33 34 35 35 32 29 25 23 28 31 30 36 37 30 31 28 22 22 22 22 29 34 36 37 37 37 38 38 38 38 38 38 38 38 40 41 41 42 43 44 45 47 49 53 55 57 58 60 63 65 71 79 80 77 76 76 76 76 77 80 82 81 81 83 84 83 80 77 78 82 81 79 78 79 78 76 72 65
55 55 53 45 43 41 38 36 35 33 31 32 31 28 26 26 29 30 30 35 36 33 32 29 25 26 23 23 28 31 34 38 38 38 38 38 38 38 38 38 38 39 40 41 42 44 44 45 47 49 52 56 58 58 59 61 64 67 73 78 77 75 73 74 76 76 75 79 82 83 83 84 83 83 81 79 81 82 79 77 76 76 76 72 66 60
57 55 52 46 43 42 40 38 36 33 31 30 30 27 26 28 28 27 29 32 33 36 37 31 28 28 25 26 28 29 34 38 37 38 39 38 38 38 38 39 40 40 41 42 43 45 47 48 49 52 54 58 60 60 61 63 66 68 73 78 77 73 72 74 76 76 76 81 83 83 84 84 82 82 84 83 83 82 78 75 73 73 72 68 63 59
58 56 53 49 44 42 41 37 33 33 31 29 29 29 26 25 25 25 27 28 28 37 44 37 32 30 26 27 28 29 34 38 38 39 38 39 39 39 40 40 42 43 43 44 46 48 49 50 52 54 56 59 61 63 65 66 67 69 73 80 80 76 76 78 78 77 80 83 84 82 83 84 82 83 85 85 83 81 76 73 73 71 69 67 63 60
59 60 57 51 43 39 37 35 34 33 31 29 28 28 27 26 27 27 28 28 25 31 38 35 33 32 29 29 30 31 35 37 38 39 39 39 40 40 40 41 44 46 46 47 48 49 49 50 53 54 56 58 61 65 68 68 68 70 73 79 81 80 81 83 81 81 82 82 83 82 82 85 86 84 85 84 82 81 78 74 73 70 69 68 63 59
60 59 56 50 42 40 39 37 36 33 31 29 27 25 25 26 27 28 32 32 25 28 34 30 30 33 33 34 35 36 39 39 38 39 40 40 40 41 42 43 46 48 48 50 50 49 49 51 53 54 56 59 62 64 67 67 68 72 75 79 81 78 80 83 81 82 82 80 82 81 81 85 87 84 83 83 81 80 78 75 73 71 69 67 62 60
58 55 53 51 45 42 41 39 36 34 31 29 26 24 23 23 25 30 37 35 27 30 34 30 31 35 37 40 42 40 42 41 38 39 40 41 40 42 44 46 48 48 49 50 50 50 52 52 54 56 57 59 60 62 65 67 70 72 74 78 79 77 76 79 79 80 79 78 79 79 78 81 83 80 78 77 75 75 76 76 74 71 68 64 62 61
58 58 56 53 50 48 47 44 40 37 32 28 26 25 22 22 24 27 33 29 27 33 34 33 38 38 38 46 49 45 43 42 40 41 41 41 40 42 45 47 48 48 49 49 50 52 53 53 55 56 56 57 57 59 62 65 68 70 72 75 76 75 73 75 77 77 76 77 78 78 77 76 77 75 73 71 70 70 72 73 72 69 66 63 61 60
61 65 62 58 55 53 50 45 39 34 31 28 27 24 23 22 22 25 29 26 28 35 36 35 39 38 40 51 54 49 46 44 43 43 43 42 42 43 47 48 48 49 49 48 51 53 52 52 53 53 53 55 56 57 59 62 65 69 73 74 73 71 70 72 75 75 76 79 79 79 80 78 73 71 70 70 68 67 68 69 70 68 65 62 59 58
64 67 67 62 53 45 41 39 36 33 32 30 28 25 24 23 22 26 29 27 30 38 39 39 40 37 41 52 55 53 51 48 47 46 44 43 44 45 48 50 49 50 49 50 53 54 53 51 51 51 52 53 54 56 58 60 62 65 70 71 70 69 67 69 73 76 79 81 80 79 80 79 72 69 68 67 66 65 66 68 68 66 63 60 58 57
66 63 62 59 51 43 40 38 35 32 31 29 27 25 25 25 25 26 27 29 32 35 38 44 45 39 41 50 54 54 53 51 51 49 46 45 46 46 47 48 49 51 51 52 54 54 53 52 52 52 52 52 52 54 56 58 59 61 65 68 69 68 67 69 71 75 79 84 84 79 76 75 72 68 66 66 67 69 70 69 66 63 60 59 57 57
65 60 59 57 50 46 43 38 34 31 30 27 25 25 26 28 28 25 27 33 32 30 35 44 45 42 45 52 54 52 51 51 51 51 50 51 50 49 49 48 49 50 51 53 54 55 54 53 54 55 55 54 53 53 54 55 57 58 62 65 66 68 69 70 71 74 82 90 91 84 77 74 71 68 67 69 71 73 72 69 65 62 61 60 60 59
62 60 63 57 47 46 45 40 35 32 30 27 25 26 26 29 29 27 32 39 37 35 42 47 45 44 48 51 53 52 51 51 51 52 53 53 52 51 51 50 50 51 52 53 54 54 55 54 55 56 57 56 55 53 53 54 55 56 59 61 63 66 69 72 72 75 82 88 89 85 80 76 73 73 75 75 76 77 76 72 69 67 65 64 64 65
59 62 65 56 47 45 44 40 35 31 30 27 28 30 29 30 30 30 35 43 42 42 50 52 47 46 49 51 51 51 51 51 52 51 52 53 53 53 52 52 53 54 54 53 53 54 54 55 55 56 57 58 56 54 54 55 55 55 55 58 61 64 68 71 71 74 80 83 84 84 83 81 80 79 80 81 82 83 81 78 76 75 74 71 71 72
60 61 61 57 51 46 44 42 36 33 32 29 29 31 31 31 31 31 34 38 40 44 50 49 44 45 50 52 50 49 49 50 51 51 51 52 53 54 54 54 55 56 54 53 53 53 54 55 56 56 57 58 57 55 54 55 55 54 54 56 59 64 68 68 69 75 81 82 82 83 85 85 82 82 84 87 86 84 83 82 81 80 81 79 77 77
64 59 55 57 53 45 45 45 38 35 34 31 33 34 31 32 32 31 32 36 40 46 48 43 40 45 51 52 51 50 48 47 49 51 51 53 54 55 55 55 56 57 56 55 55 55 55 56 58 59 59 59 58 57 55 55 56 56 57 57 58 63 68 68 69 74 78 80 83 83 82 80 79 80 84 83 79 77 79 81 79 79 80 81 79 78
68 62 56 59 55 45 47 48 40 37 38 38 40 40 34 32 33 31 31 35 39 45 49 46 45 48 51 52 52 53 50 47 49 52 55 57 59 58 57 58 59 60 60 59 57 58 58 58 60 62 63 63 62 60 57 57 57 58 58 58 60 63 68 72 74 74 74 79 84 84 79 76 74 73 72 72 73 74 75 75 76 78 80 80 77 74
67 63 60 64 60 51 51 50 43 43 47 46 45 45 43 42 41 38 36 37 39 42 47 51 52 51 51 51 53 56 56 53 51 54 58 60 60 61 64 65 65 64 63 62 61 63 64 64 64 65 66 67 65 62 59 59 59 60 60 59 60 61 67 74 76 75 73 73 75 78 76 73 71 67 65 69 74 74 73 75 77 79 78 75 71 68
65 63 63 65 58 51 50 49 48 50 52 51 47 45 46 45 42 40 38 37 40 42 45 50 53 53 52 52 53 55 58 58 55 55 60 63 65 67 69 70 68 65 65 67 69 69 68 67 67 67 68 69 67 63 61 60 61 61 60 60 61 63 68 73 73 73 72 71 72 76 76 72 69 67 68 72 73 71 73 76 78 77 74 71 67 65
64 62 64 62 56 55 53 51 54 55 54 54 52 47 45 41 38 41 40 37 40 44 47 50 52 53 53 53 53 54 57 59 58 56 58 63 68 70 71 71 69 65 65 70 72 69 67 66 68 68 68 69 69 66 63 62 62 62 62 62 64 66 70 74 74 73 73 75 78 81 79 74 72 72 73 74 72 72 75 77 76 76 74 70 64 61
63 59 61 60 58 60 58 54 58 59 57 58 56 51 47 43 43 45 42 38 40 44 49 52 52 53 54 54 53 53 52 56 58 57 56 58 62 66 68 68 67 64 63 66 68 69 69 71 72 73 72 71 70 69 67 64 63 65 64 65 68 70 71 75 79 78 76 77 79 81 79 76 76 77 77 75 75 75 75 75 76 76 73 65 58 55
61 60 62 62 62 64 61 57 58 61 60 59 57 54 50 49 49 44 38 39 43 44 49 53 54 53 54 54 54 53 50 51 54 56 58 59 61 62 62 61 61 60 61 62 64 67 69 70 70 73 73 71 70 70 70 67 65 65 65 66 70 74 73 74 78 79 78 77 76 77 78 78 79 81 81 80 80 78 77 77 76 72 66 58 51 51
62 62 60 60 62 63 63 59 59 61 62 60 58 56 54 51 47 40 39 45 47 46 50 55 54 54 54 56 56 54 50 49 50 51 55 59 60 59 58 58 58 59 60 62 63 63 64 64 65 67 70 72 73 74 73 72 68 67 67 68 70 73 74 73 75 78 78 78 76 75 75 80 85 87 85 83 82 80 77 75 71 64 56 50 47 48
63 62 61 63 63 61 61 61 60 63 64 62 60 59 55 49 44 41 47 51 48 46 50 55 55 55 55 55 56 56 52 49 47 47 49 53 55 55 55 55 57 59 59 60 60 60 59 58 60 64 68 71 74 75 74 74 71 69 70 70 71 74 76 75 76 79 80 77 74 73 76 82 86 86 83 82 81 79 75 70 64 55 47 44 44 43
61 58 60 65 64 60 63 64 64 66 67 66 66 62 53 47 46 48 52 51 48 47 50 52 54 55 55 55 55 56 53 48 46 46 47 49 52 53 53 54 54 56 56 54 53 53 54 54 55 59 65 68 70 73 74 73 72 71 71 72 73 77 80 79 77 78 78 74 73 75 80 82 82 80 81 81 77 73 69 63 55 47 42 40 38 37
61 58 59 61 60 59 64 65 65 70 69 67 68 65 57 52 53 55 54 52 52 51 51 51 53 54 55 55 54 53 50 48 48 48 47 49 52 52 53 53 53 54 53 51 51 52 55 57 55 55 59 63 67 71 72 72 71 70 71 73 74 76 80 79 76 74 73 73 75 76 75 75 76 78 78 75 70 65 59 53 46 40 37 35 33 36
61 58 59 61 60 58 60 63 68 74 73 69 67 66 62 60 58 58 56 54 54 53 52 52 51 51 53 54 53 52 50 49 50 50 49 50 51 52 52 53 52 53 52 52 55 58 58 59 58 56 57 62 67 69 68 68 68 68 70 73 76 78 79 77 73 72 72 74 74 72 70 71 73 73 70 65 62 59 53 46 40 36 33 31 33 39
65 62 61 64 63 59 60 66 73 75 72 69 67 64 61 59 58 56 55 53 53 54 54 52 50 50 51 52 53 53 50 49 50 50 49 49 50 51 52 52 52 53 51 53 58 59 57 56 58 57 56 59 65 68 68 67 67 69 71 73 77 81 81 75 71 73 73 71 69 68 70 71 70 66 62 60 60 58 53 46 38 33 31 33 37 41
70 68 65 64 65 63 65 70 72 71 69 67 66 63 60 59 57 55 54 53 52 52 52 52 50 49 49 50 52 53 52 50 50 49 50 52 53 53 54 53 53 53 52 54 59 59 55 53 54 54 54 57 61 67 71 70 68 69 72 74 77 80 80 75 73 73 71 69 68 69 70 68 65 62 60 60 60 59 55 47 37 33 35 39 39 37
70 68 66 66 67 68 70 71 71 71 69 67 64 62 61 59 59 57 56 55 52 50 49 50 48 47 48 50 52 53 53 51 49 49 53 56 57 58 57 56 55 54 53 55 59 60 57 55 53 51 54 59 61 63 67 70 69 69 72 75 79 81 79 75 73 72 70 69 69 70 68 65 62 61 61 62 62 59 54 48 42 39 40 40 35 30
70 68 68 69 70 69 70 70 68 66 66 66 64 62 60 59 59 58 57 56 55 52 51 50 49 47 48 50 53 55 54 52 52 56 61 63 63 63 61 58 57 56 54 54 56 58 58 58 56 52 55 62 63 60 62 68 71 72 73 75 79 82 79 73 70 70 70 70 69 68 66 63 61 62 63 63 61 56 52 50 48 43 38 33 28 23
72 72 72 70 69 69 69 68 65 62 62 62 61 61 60 59 58 58 57 57 56 55 53 53 51 50 49 50 53 56 55 54 56 62 66 67 66 65 64 62 58 57 55 53 54 55 56 57 55 53 58 68 68 63 65 69 70 71 73 75 79 83 79 72 69 70 70 69 67 66 64 62 62 63 64 61 55 51 51 50 46 39 32 27 24 22
73 75 74 70 68 69 69 69 66 65 65 64 61 59 59 57 56 55 55 55 55 54 54 54 54 52 51 52 53 55 56 56 57 60 64 67 68 66 66 66 63 60 58 56 54 53 53 54 52 51 59 73 75 70 71 73 71 72 73 74 78 81 76 70 69 71 69 68 66 64 64 64 65 65 62 56 50 50 51 46 40 34 29 27 26 27
73 75 74 71 71 70 69 68 67 67 68 67 64 60 59 57 55 54 54 54 55 55 55 55 55 54 52 52 53 54 56 58 59 60 63 67 70 72 73 71 68 65 63 60 57 54 53 53 51 49 55 69 75 73 74 75 73 73 74 77 79 79 74 70 70 71 70 68 66 65 66 66 65 65 61 54 49 47 45 40 36 34 32 31 32 33